Regional Weather Roundup
Issued by NWS

Home | Current Version | Previous Version | Graphics & Text | Print | Product List | Glossary On
Versions: 1 2 3 4 5 6 7 8 9 10 11 12 13 14 15 16 17 18 19 20 21 22 23 24 25 26 27 28 29 30 31 32 33 34 35 36 37 38 39 40 41 42 43 44 45 46 47 48 49 50
000
ASUS43 KTOP 022308
RWRKS

WEATHER ROUNDUP FOR KANSAS
NATIONAL WEATHER SERVICE GOODLAND KS
600 PM CDT TUE JUN 02 2015

NOTE:  "FAIR" INDICATES FEW OR NO CLOUDS BELOW 12,000 FEET WITH NO
SIGNIFICANT WEATHER AND/OR OBSTRUCTIONS TO VISIBILITY.

KSZ001>006-013>018-027>032-041>047-030000-
NORTHWEST KANSAS

CITY           SKY/WX    TMP DP  RH WIND       PRES   REMARKS
GOODLAND       SUNNY     88  56  33 SE7       29.82S
HAYS           SUNNY     88  64  45 S17G23    29.80F
HILL CITY      MOSUNNY   86  65  49 S15G22    29.79F
RUSSELL        SUNNY     87  65  47 S21       29.80S
$$

KSZ061>065-074>080-084>089-030000-
SOUTHWEST KANSAS

CITY           SKY/WX    TMP DP  RH WIND       PRES   REMARKS
DODGE CITY     SUNNY     89  61  38 S21G30    29.82S
ELKHART          N/A     90  55  30 S9          N/A
GARDEN CITY    SUNNY     89  60  37 S20       29.79F
GREAT BEND     SUNNY     86  66  51 S21       29.80S
LIBERAL        SUNNY     90  61  37 S20G28    29.82F
PRATT          SUNNY     88  59  37 S21G28    29.84F
$$

KSZ066>073-081>083-090>101-030000-
SOUTHEAST KANSAS

CITY           SKY/WX    TMP DP  RH WIND       PRES   REMARKS
CHANUTE        PTSUNNY   81  67  62 SE10      29.93F
COFFEYVILLE    SUNNY     83  67  58 S13       29.92F
HUTCHINSON     SUNNY     88  65  46 S22G31    29.83F
MEDICINE LODGE   N/A     89  64  43 S18G28    29.81F
NEWTON         MOSUNNY   84  64  51 SE14G24   29.89S
PARSONS        MOSUNNY   83  68  60 VRB7      29.94F
WICHITA INTL   MOSUNNY   87  65  47 S20       29.85F
WICHITA JABRA  LGT RAIN  84  66  54 SE15      29.87S
WICHITA MCCONL MOSUNNY   86  67  54 SE18G25   29.87S
WINFIELD       MOSUNNY   84  68  58 SE16      29.88F
$$

KSZ007>012-019>026-033>040-048>060-102>105-030000-
NORTHEAST KANSAS

CITY           SKY/WX    TMP DP  RH WIND       PRES   REMARKS
CONCORDIA      MOSUNNY   85  66  53 SE22G28   29.84F
EMPORIA        SUNNY     80  67  64 SE15      29.90F
LAWRENCE       PTSUNNY   76  62  62 SE15      29.95F
MANHATTAN      MOSUNNY   83  68  60 SE17      29.87F
MARYSVILLE     PTSUNNY   79  68  69 SE13      29.88F
OLATHE IND     PTSUNNY   76  62  62 SE13      29.98S
OLATHE EXE     PTSUNNY   74  62  66 SE10      29.97S
SALINA         MOSUNNY   88  65  46 SE17G28   29.83F
TOPEKA BILLARD PTSUNNY   76  65  68 E15       29.93F
TOPEKA FORBES  PTSUNNY   78  66  66 SE14      29.92F
$$


USA.gov is the U.S. government's official web portal to all federal, state and local government web resources and services.